When you browse on this site, cookies collect data to enhance your experience and personalize the content and advertising you see.
Visit our Privacy Policy to learn more. By continuing to use the site, you agree to this use of cookies and data.

Stündliche Wetter Juazeiro do Norte

Heute, 26 September, Samstag

Zeit Temperatur Niederschläge Wind Luftdruck Luftfeuchtigkeit
00:00 +24°C° 0 mm 2 m/S 727 mmHg 60%
01:00 +23°C° 0 mm 2 m/S 727 mmHg 64%
02:00 +22°C° 0 mm 1 m/S 727 mmHg 68%
03:00 +21°C° 0 mm 1 m/S 727 mmHg 73%
04:00 +21°C° 0 mm 1 m/S 727 mmHg 74%
05:00 +20°C° 0 mm 1 m/S 727 mmHg 75%
06:00 +20°C° 0 mm 1 m/S 728 mmHg 76%
07:00 +24°C° 0 mm 2 m/S 728 mmHg 63%
08:00 +27°C° 0 mm 2 m/S 728 mmHg 50%
09:00 +30°C° 0 mm 3 m/S 729 mmHg 37%
10:00 +33°C° 0 mm 3 m/S 728 mmHg 32%
11:00 +36°C° 0 mm 3 m/S 728 mmHg 27%
12:00 +38°C° 0 mm 2 m/S 727 mmHg 22%
13:00 +39°C° 0 mm 2 m/S 726 mmHg 21%
14:00 +39°C° 0 mm 2 m/S 725 mmHg 19%
15:00 +40°C° 0 mm 2 m/S 724 mmHg 18%
16:00 +37°C° 0 mm 2 m/S 724 mmHg 22%
17:00 +33°C° 0 mm 1 m/S 724 mmHg 25%
18:00 +31°C° 0 mm 1 m/S 724 mmHg 29%
19:00 +31°C° 0 mm 2 m/S 725 mmHg 31%
20:00 +30°C° 0 mm 2 m/S 725 mmHg 33%
21:00 +30°C° 0 mm 2 m/S 726 mmHg 34%
22:00 +28°C° 0 mm 2 m/S 726 mmHg 45%
23:00 +27°C° 0 mm 2 m/S 726 mmHg 55%

Morgen, 27 September, Sonntag

Zeit Temperatur Niederschläge Wind Luftdruck Luftfeuchtigkeit
00:00 +25°C° 0 mm 2 m/S 726 mmHg 66%
01:00 +24°C° 0 mm 2 m/S 726 mmHg 72%
02:00 +23°C° 0 mm 1 m/S 726 mmHg 78%
03:00 +22°C° 0 mm 1 m/S 725 mmHg 84%
04:00 +22°C° 0 mm 1 m/S 726 mmHg 85%
05:00 +21°C° 0 mm 1 m/S 726 mmHg 86%
06:00 +21°C° 0 mm 1 m/S 727 mmHg 87%
07:00 +24°C° 0 mm 2 m/S 727 mmHg 72%
08:00 +28°C° 0 mm 2 m/S 727 mmHg 58%
09:00 +31°C° 0 mm 3 m/S 728 mmHg 43%
10:00 +34°C° 0 mm 3 m/S 727 mmHg 38%
11:00 +36°C° 0 mm 3 m/S 727 mmHg 32%
12:00 +38°C° 0 mm 3 m/S 726 mmHg 26%
13:00 +39°C° 0 mm 3 m/S 725 mmHg 24%
14:00 +39°C° 0 mm 2 m/S 724 mmHg 22%
15:00 +40°C° 0 mm 2 m/S 723 mmHg 20%
16:00 +38°C° 0 mm 2 m/S 724 mmHg 24%
17:00 +36°C° 0 mm 2 m/S 724 mmHg 27%
18:00 +33°C° 0 mm 1 m/S 724 mmHg 30%
19:00 +32°C° 0 mm 1 m/S 724 mmHg 33%
20:00 +31°C° 0 mm 1 m/S 725 mmHg 35%
21:00 +30°C° 0 mm 1 m/S 725 mmHg 37%
22:00 +28°C° 0.1 mm 1 m/S 726 mmHg 48%
23:00 +27°C° 0.1 mm 1 m/S 726 mmHg 60%

übermorgen, 28 September, Montag

Zeit Temperatur Niederschläge Wind Luftdruck Luftfeuchtigkeit
00:00 +25°C° 0.1 mm 1 m/S 726 mmHg 71%
01:00 +24°C° 0 mm 1 m/S 726 mmHg 78%
02:00 +23°C° 0 mm 1 m/S 725 mmHg 86%
03:00 +22°C° 0 mm 1 m/S 725 mmHg 93%
04:00 +22°C° 0 mm 1 m/S 725 mmHg 93%
05:00 +22°C° 0 mm 1 m/S 726 mmHg 92%
06:00 +22°C° 0 mm 1 m/S 726 mmHg 92%
07:00 +25°C° 0 mm 1 m/S 726 mmHg 78%
08:00 +28°C° 0 mm 2 m/S 727 mmHg 64%
09:00 +31°C° 0 mm 2 m/S 727 mmHg 51%
10:00 +34°C° 0 mm 2 m/S 727 mmHg 42%
11:00 +37°C° 0 mm 3 m/S 726 mmHg 34%
12:00 +40°C° 0 mm 3 m/S 726 mmHg 25%
13:00 +40°C° 0 mm 2 m/S 725 mmHg 23%
14:00 +40°C° 0 mm 2 m/S 724 mmHg 21%
15:00 +40°C° 0 mm 2 m/S 723 mmHg 19%
16:00 +38°C° 0 mm 2 m/S 723 mmHg 22%
17:00 +36°C° 0 mm 2 m/S 723 mmHg 24%
18:00 +34°C° 0 mm 2 m/S 723 mmHg 27%
19:00 +34°C° 0 mm 2 m/S 724 mmHg 28%
20:00 +32°C° 0 mm 2 m/S 725 mmHg 29%
21:00 +32°C° 0 mm 2 m/S 725 mmHg 30%
22:00 +30°C° 0 mm 2 m/S 726 mmHg 43%
23:00 +28°C° 0 mm 2 m/S 726 mmHg 55%

29 September, Dienstag

Zeit Temperatur Niederschläge Wind Luftdruck Luftfeuchtigkeit
00:00 +26°C° 0 mm 2 m/S 726 mmHg 68%
01:00 +25°C° 0 mm 1 m/S 726 mmHg 76%
02:00 +23°C° 0 mm 1 m/S 725 mmHg 85%
03:00 +20°C° 0 mm 0 m/S 725 mmHg 93%
04:00 +22°C° 0 mm 1 m/S 726 mmHg 92%
05:00 +22°C° 0 mm 1 m/S 726 mmHg 90%
06:00 +22°C° 0 mm 1 m/S 726 mmHg 89%
07:00 +25°C° 0 mm 2 m/S 727 mmHg 74%
08:00 +28°C° 0 mm 2 m/S 727 mmHg 59%
09:00 +31°C° 0 mm 3 m/S 728 mmHg 44%
10:00 +35°C° 0 mm 3 m/S 727 mmHg 37%
11:00 +37°C° 0 mm 3 m/S 726 mmHg 31%
12:00 +39°C° 0 mm 3 m/S 726 mmHg 24%
13:00 +39°C° 0 mm 3 m/S 725 mmHg 23%
14:00 +39°C° 0 mm 3 m/S 724 mmHg 22%
15:00 +39°C° 0 mm 3 m/S 723 mmHg 21%
16:00 +37°C° 0 mm 2 m/S 723 mmHg 24%
17:00 +34°C° 0 mm 1 m/S 723 mmHg 26%
18:00 +32°C° 0 mm 1 m/S 723 mmHg 29%
19:00 +32°C° 0 mm 1 m/S 724 mmHg 31%
20:00 +31°C° 0 mm 1 m/S 725 mmHg 33%
21:00 +30°C° 0 mm 2 m/S 726 mmHg 34%
22:00 +28°C° 0 mm 2 m/S 726 mmHg 44%
23:00 +27°C° 0 mm 2 m/S 726 mmHg 55%

30 September, Mittwoch

Zeit Temperatur Niederschläge Wind Luftdruck Luftfeuchtigkeit
00:00 +25°C° 0 mm 2 m/S 726 mmHg 65%
01:00 +24°C° 0 mm 2 m/S 726 mmHg 73%
02:00 +22°C° 0 mm 1 m/S 726 mmHg 81%
03:00 +21°C° 0 mm 1 m/S 726 mmHg 90%
04:00 +21°C° 0 mm 1 m/S 726 mmHg 90%
05:00 +21°C° 0 mm 1 m/S 727 mmHg 89%
06:00 +20°C° 0 mm 2 m/S 727 mmHg 89%
07:00 +24°C° 0 mm 2 m/S 728 mmHg 75%
08:00 +27°C° 0 mm 3 m/S 728 mmHg 61%
09:00 +30°C° 0 mm 4 m/S 729 mmHg 47%
10:00 +33°C° 0 mm 4 m/S 728 mmHg 38%
11:00 +36°C° 0 mm 4 m/S 727 mmHg 30%
12:00 +38°C° 0 mm 4 m/S 726 mmHg 21%
13:00 +40°C° 0 mm 4 m/S 726 mmHg 19%
14:00 +40°C° 0 mm 4 m/S 725 mmHg 17%
15:00 +41°C° 0 mm 4 m/S 724 mmHg 15%
16:00 +37°C° 0 mm 3 m/S 724 mmHg 18%
17:00 +35°C° 0 mm 2 m/S 724 mmHg 20%
18:00 +32°C° 0 mm 1 m/S 724 mmHg 22%
19:00 +31°C° 0 mm 2 m/S 725 mmHg 26%
20:00 +30°C° 0 mm 2 m/S 725 mmHg 29%
21:00 +29°C° 0 mm 2 m/S 726 mmHg 32%
22:00 +27°C° 0 mm 2 m/S 726 mmHg 41%
23:00 +25°C° 0 mm 2 m/S 726 mmHg 49%

1 Oktober, Donnerstag

Zeit Temperatur Niederschläge Wind Luftdruck Luftfeuchtigkeit
00:00 +24°C° 0 mm 1 m/S 726 mmHg 57%
01:00 +23°C° 0 mm 1 m/S 726 mmHg 67%
02:00 +21°C° 0 mm 1 m/S 726 mmHg 77%
03:00 +20°C° 0 mm 1 m/S 725 mmHg 87%
04:00 +20°C° 0 mm 1 m/S 726 mmHg 89%
05:00 +20°C° 0 mm 1 m/S 726 mmHg 90%
06:00 +20°C° 0 mm 1 m/S 727 mmHg 91%
07:00 +23°C° 0 mm 2 m/S 727 mmHg 75%
08:00 +26°C° 0 mm 3 m/S 728 mmHg 59%
09:00 +29°C° 0 mm 4 m/S 729 mmHg 42%
10:00 +33°C° 0 mm 4 m/S 728 mmHg 34%
11:00 +36°C° 0 mm 4 m/S 727 mmHg 26%
12:00 +38°C° 0 mm 4 m/S 726 mmHg 18%
13:00 +39°C° 0 mm 3 m/S 725 mmHg 17%
14:00 +39°C° 0 mm 3 m/S 725 mmHg 16%
15:00 +39°C° 0 mm 3 m/S 724 mmHg 15%
16:00 +37°C° 0 mm 2 m/S 724 mmHg 18%
17:00 +34°C° 0 mm 2 m/S 724 mmHg 21%
18:00 +30°C° 0 mm 1 m/S 724 mmHg 24%
19:00 +29°C° 0 mm 2 m/S 724 mmHg 30%
20:00 +28°C° 0 mm 2 m/S 725 mmHg 36%
21:00 +27°C° 0 mm 3 m/S 725 mmHg 43%
22:00 +26°C° 0 mm 3 m/S 726 mmHg 50%
23:00 +25°C° 0 mm 2 m/S 726 mmHg 58%
Mehr zeigen